Radiation Dose at Monitoring Post of Fukushima Daini Nuclear Power Station
Date,Time,MP-1(microSv/h),MP-2(microSv/h),MP-3(microSv/h),MP-4(microSv/h),MP-5(microSv/h),MP-6(microSv/h),MP-7(microSv/h),Wind Direction,Wind Velocity(m/s),Rain
2017/07/19,00:00,0.350,0.215,0.362,0.337,0.322,0.175,0.106,north,5.9,No
2017/07/19,00:10,0.353,0.217,0.359,0.337,0.319,0.175,0.107,north,6.7,No
2017/07/19,00:20,0.353,0.216,0.362,0.333,0.322,0.177,0.106,north,6.8,No
2017/07/19,00:30,0.349,0.215,0.361,0.336,0.322,0.175,0.106,north,4.7,No
2017/07/19,00:40,0.355,0.218,0.357,0.337,0.319,0.174,0.107,north,5.4,No
2017/07/19,00:50,0.351,0.215,0.362,0.333,0.321,0.175,0.105,north,6.3,No
2017/07/19,01:00,0.350,0.216,0.361,0.337,0.322,0.176,0.107,north,6.1,No
2017/07/19,01:10,0.355,0.216,0.358,0.336,0.317,0.175,0.107,north,5.3,No
2017/07/19,01:20,0.352,0.215,0.362,0.333,0.324,0.175,0.106,north,6.0,No
2017/07/19,01:30,0.352,0.217,0.361,0.339,0.322,0.176,0.107,north,5.6,No
2017/07/19,01:40,0.355,0.217,0.359,0.335,0.321,0.175,0.106,north,5.6,No
2017/07/19,01:50,0.351,0.216,0.362,0.334,0.322,0.177,0.106,north,5.6,No
2017/07/19,02:00,0.352,0.218,0.359,0.337,0.320,0.175,0.107,north,6.0,No
2017/07/19,02:10,0.355,0.216,0.359,0.335,0.320,0.175,0.106,north,6.0,No
2017/07/19,02:20,0.350,0.216,0.361,0.335,0.321,0.176,0.107,north,5.9,No
2017/07/19,02:30,0.353,0.216,0.360,0.337,0.318,0.177,0.107,north-northeast,6.1,No
2017/07/19,02:40,0.354,0.215,0.360,0.334,0.320,0.174,0.106,north-northeast,6.8,No
2017/07/19,02:50,0.350,0.217,0.362,0.337,0.323,0.175,0.106,north-northeast,6.7,No
2017/07/19,03:00,0.353,0.216,0.358,0.337,0.319,0.176,0.107,north-northeast,6.2,No
2017/07/19,03:10,0.353,0.216,0.362,0.333,0.323,0.175,0.106,north-northeast,4.6,No
2017/07/19,03:20,0.351,0.218,0.362,0.337,0.321,0.176,0.107,north-northeast,3.9,No
2017/07/19,03:30,0.354,0.216,0.358,0.336,0.319,0.175,0.106,north-northeast,2.8,No
2017/07/19,03:40,0.352,0.217,0.362,0.333,0.323,0.176,0.106,north,3.3,No
2017/07/19,03:50,0.351,0.217,0.360,0.338,0.320,0.176,0.107,north,3.6,No
2017/07/19,04:00,0.355,0.216,0.359,0.336,0.320,0.175,0.106,north-northeast,3.2,No
2017/07/19,04:10,0.352,0.217,0.362,0.333,0.324,0.176,0.106,north-northeast,3.1,No
2017/07/19,04:20,0.351,0.215,0.359,0.338,0.318,0.176,0.107,north,2.8,No
2017/07/19,04:30,0.354,0.216,0.361,0.334,0.321,0.176,0.105,north,4.0,No
2017/07/19,04:40,0.351,0.218,0.361,0.333,0.322,0.175,0.107,north,4.2,No
2017/07/19,04:50,0.353,0.216,0.358,0.336,0.319,0.175,0.106,north,3.7,No
2017/07/19,05:00,0.354,0.216,0.362,0.334,0.322,0.176,0.106,north,3.6,No
2017/07/19,05:10,0.351,0.216,0.361,0.335,0.321,0.175,0.107,north,4.3,No
2017/07/19,05:20,0.353,0.215,0.359,0.337,0.317,0.176,0.106,north,3.7,No
2017/07/19,05:30,0.354,0.217,0.363,0.334,0.322,0.175,0.106,north,2.8,No
2017/07/19,05:40,0.351,0.217,0.359,0.335,0.320,0.175,0.107,north,3.1,No
2017/07/19,05:50,0.353,0.216,0.359,0.337,0.319,0.175,0.105,north-northwest,2.8,No
2017/07/19,06:00,0.354,0.217,0.362,0.333,0.321,0.174,0.106,north,3.1,No
2017/07/19,06:10,0.352,0.215,0.359,0.338,0.320,0.176,0.107,north,3.9,No
2017/07/19,06:20,0.353,0.216,0.358,0.336,0.318,0.175,0.105,north,2.7,No
2017/07/19,06:30,0.355,0.217,0.361,0.333,0.322,0.174,0.107,north,2.9,No
2017/07/19,06:40,0.352,0.216,0.359,0.336,0.322,0.175,0.107,north,2.2,No
2017/07/19,06:50,0.350,0.215,0.358,0.337,0.318,0.176,0.106,north,3.7,No
2017/07/19,07:00,0.355,0.217,0.363,0.334,0.317,0.176,0.106,north,1.9,No
2017/07/19,07:10,0.352,0.217,0.360,0.334,0.323,0.175,0.105,north,3.2,No
2017/07/19,07:20,0.349,0.216,0.357,0.338,0.320,0.175,0.107,north,3.3,No
2017/07/19,07:30,0.355,0.215,0.360,0.335,0.319,0.176,0.107,north-northeast,4.6,No
2017/07/19,07:40,0.354,0.216,0.363,0.333,0.319,0.175,0.106,north-northeast,3.9,No
2017/07/19,07:50,0.351,0.217,0.359,0.335,0.322,0.174,0.105,north,4.2,No
2017/07/19,08:00,0.352,0.215,0.357,0.339,0.321,0.175,0.106,north,5.2,No
2017/07/19,08:10,0.355,0.215,0.362,0.337,0.319,0.176,0.107,north-northeast,4.1,No
2017/07/19,08:20,0.352,0.218,0.362,0.334,0.318,0.176,0.107,north-northeast,3.4,No
2017/07/19,08:30,0.352,0.219,0.359,0.335,0.317,0.175,0.105,north-northeast,3.5,No
2017/07/19,08:40,0.354,0.217,0.356,0.334,0.318,0.175,0.106,north-northeast,4.2,No
2017/07/19,08:50,0.356,0.216,0.358,0.334,0.318,0.174,0.106,northeast,3.8,No
2017/07/19,09:00,0.352,0.216,0.363,0.335,0.320,0.176,0.106,northeast,4.1,No
2017/07/19,09:10,0.352,0.217,0.362,0.333,0.320,0.175,0.107,northeast,3.6,No
2017/07/19,09:20,0.352,0.217,0.360,0.335,0.320,0.176,0.106,northeast,3.6,No
2017/07/19,09:30,0.350,0.217,0.358,0.335,0.318,0.176,0.107,northeast,3.5,No
2017/07/19,09:40,0.351,0.217,0.364,0.337,0.319,0.176,0.107,north-northeast,3.7,No
2017/07/19,09:50,0.351,0.216,0.362,0.335,0.321,0.176,0.108,northeast,4.2,No
2017/07/19,10:00,0.351,0.217,0.359,0.336,0.321,0.176,0.106,northeast,4.6,No
2017/07/19,10:10,0.351,0.216,0.358,0.336,0.319,0.177,0.107,northeast,4.9,No
2017/07/19,10:20,0.351,0.216,0.360,0.337,0.320,0.176,0.106,northeast,5.3,No
2017/07/19,10:30,0.352,0.216,0.363,0.338,0.319,0.177,0.106,east-northeast,4.5,No
2017/07/19,10:40,0.352,0.215,0.363,0.338,0.320,0.177,0.106,east-northeast,2.4,No
2017/07/19,10:50,0.353,0.216,0.362,0.337,0.320,0.177,0.106,northeast,3.3,No
2017/07/19,11:00,0.351,0.217,0.360,0.337,0.321,0.176,0.107,northeast,3.6,No
2017/07/19,11:10,0.352,0.217,0.361,0.338,0.319,0.177,0.105,northeast,3.9,No
2017/07/19,11:20,0.352,0.217,0.361,0.336,0.320,0.177,0.107,northeast,4.2,No
2017/07/19,11:30,0.351,0.216,0.359,0.334,0.321,0.176,0.106,northeast,2.9,No
2017/07/19,11:40,0.355,0.216,0.359,0.335,0.325,0.177,0.108,east-northeast,3.0,No
2017/07/19,11:50,0.359,0.216,0.358,0.334,0.328,0.177,0.109,northeast,3.2,No
2017/07/19,12:00,0.355,0.216,0.359,0.335,0.325,0.176,0.108,northeast,4.2,No
2017/07/19,12:10,0.353,0.217,0.365,0.337,0.323,0.178,0.108,northeast,2.4,No
2017/07/19,12:20,0.352,0.220,0.364,0.341,0.321,0.177,0.108,east-northeast,2.1,No
2017/07/19,12:30,0.355,0.219,0.362,0.339,0.321,0.177,0.107,northeast,2.7,No
2017/07/19,12:40,0.358,0.217,0.359,0.337,0.320,0.177,0.107,northeast,1.6,No
2017/07/19,12:50,0.356,0.217,0.359,0.336,0.322,0.177,0.108,east-northeast,1.8,No
2017/07/19,13:00,0.353,0.215,0.361,0.336,0.322,0.176,0.107,northeast,1.6,No
2017/07/19,13:10,0.351,0.217,0.358,0.337,0.322,0.177,0.107,northeast,1.8,No
2017/07/19,13:20,0.350,0.216,0.359,0.334,0.321,0.177,0.108,east-northeast,2.5,No
2017/07/19,13:30,0.354,0.217,0.364,0.334,0.320,0.179,0.108,east-northeast,2.1,No
2017/07/19,13:40,0.357,0.215,0.366,0.334,0.321,0.178,0.108,east,2.2,No
2017/07/19,13:50,0.355,0.216,0.365,0.336,0.321,0.177,0.107,east-northeast,2.4,No
2017/07/19,14:00,0.354,0.216,0.362,0.338,0.322,0.177,0.106,east-northeast,3.3,No
2017/07/19,14:10,0.352,0.217,0.362,0.340,0.323,0.176,0.106,east-northeast,2.8,No
2017/07/19,14:20,0.352,0.219,0.360,0.342,0.323,0.176,0.107,east,2.2,No
2017/07/19,14:30,0.358,0.220,0.360,0.339,0.322,0.177,0.107,east,2.2,No
2017/07/19,14:40,0.357,0.219,0.360,0.338,0.321,0.177,0.108,east-southeast,1.3,No
2017/07/19,14:50,0.355,0.218,0.365,0.336,0.321,0.177,0.108,east,1.5,No
2017/07/19,15:00,0.353,0.217,0.367,0.335,0.324,0.176,0.107,south-southeast,1.2,No
2017/07/19,15:10,0.355,0.216,0.365,0.340,0.322,0.176,0.107,southeast,2.2,No
2017/07/19,15:20,0.357,0.218,0.362,0.342,0.322,0.178,0.106,south-southeast,1.8,No
2017/07/19,15:30,0.356,0.218,0.359,0.338,0.327,0.178,0.108,south-southeast,1.3,No
2017/07/19,15:40,0.352,0.217,0.363,0.336,0.328,0.177,0.109,south-southeast,1.8,No
2017/07/19,15:50,0.354,0.217,0.367,0.341,0.324,0.177,0.108,south,1.7,No
2017/07/19,16:00,0.358,0.218,0.363,0.341,0.323,0.176,0.105,south,1.6,No
2017/07/19,16:10,0.356,0.219,0.361,0.338,0.321,0.178,0.107,south,1.6,No
2017/07/19,16:20,0.354,0.219,0.363,0.337,0.322,0.177,0.105,south,3.2,No
2017/07/19,16:30,0.352,0.218,0.367,0.337,0.327,0.177,0.105,south,2.5,No
2017/07/19,16:40,0.358,0.216,0.364,0.341,0.325,0.177,0.103,south,2.5,No
2017/07/19,16:50,0.357,0.219,0.361,0.339,0.323,0.177,0.102,south,1.5,No
2017/07/19,17:00,0.354,0.219,0.361,0.336,0.320,0.178,0.104,south,1.3,No
2017/07/19,17:10,0.353,0.217,0.366,0.338,0.321,0.177,0.104,south,1.4,No
2017/07/19,17:20,0.358,0.217,0.363,0.343,0.326,0.177,0.104,south-southwest,0.5,No
2017/07/19,17:30,0.356,0.219,0.362,0.338,0.326,0.177,0.103,-,CALM,No
2017/07/19,17:40,0.354,0.218,0.365,0.337,0.324,0.178,0.104,south,1.8,No
2017/07/19,17:50,0.355,0.218,0.366,0.341,0.321,0.177,0.103,south,0.8,No
2017/07/19,18:00,0.359,0.218,0.363,0.341,0.326,0.177,0.103,-,CALM,No
2017/07/19,18:10,0.355,0.219,0.364,0.337,0.324,0.178,0.105,south-southeast,1.3,No
2017/07/19,18:20,0.355,0.218,0.367,0.341,0.322,0.177,0.104,south,2.2,No
2017/07/19,18:30,0.358,0.218,0.361,0.342,0.324,0.177,0.104,south,1.5,No
2017/07/19,18:40,0.354,0.218,0.365,0.339,0.325,0.179,0.104,south-southeast,1.0,No
2017/07/19,18:50,0.354,0.217,0.366,0.340,0.323,0.178,0.104,south-southeast,1.2,No
2017/07/19,19:00,0.358,0.219,0.362,0.342,0.326,0.177,0.103,south,1.9,No
2017/07/19,19:10,0.354,0.219,0.365,0.338,0.324,0.179,0.105,south,1.6,No
2017/07/19,19:20,0.353,0.216,0.365,0.340,0.321,0.177,0.104,south,1.0,No
2017/07/19,19:30,0.359,0.219,0.360,0.342,0.325,0.177,0.104,south-southwest,2.7,No
2017/07/19,19:40,0.355,0.218,0.365,0.339,0.326,0.179,0.104,south,2.1,No
2017/07/19,19:50,0.355,0.219,0.365,0.340,0.322,0.177,0.104,south,3.2,No
2017/07/19,20:00,0.358,0.219,0.361,0.341,0.327,0.176,0.105,south,4.6,No
2017/07/19,20:10,0.355,0.218,0.367,0.338,0.324,0.178,0.105,south,4.6,No
2017/07/19,20:20,0.355,0.219,0.363,0.340,0.322,0.176,0.103,south,5.7,No
2017/07/19,20:30,0.359,0.219,0.362,0.341,0.327,0.177,0.103,south,4.4,No
2017/07/19,20:40,0.355,0.217,0.366,0.338,0.323,0.178,0.105,south-southwest,4.5,No
2017/07/19,20:50,0.354,0.219,0.363,0.342,0.324,0.177,0.103,south,5.2,No
2017/07/19,21:00,0.359,0.219,0.363,0.340,0.324,0.178,0.105,south-southwest,5.0,No
2017/07/19,21:10,0.355,0.218,0.367,0.337,0.324,0.179,0.103,south,5.4,No
2017/07/19,21:20,0.356,0.219,0.363,0.340,0.323,0.176,0.104,south,6.1,No
2017/07/19,21:30,0.357,0.218,0.364,0.340,0.326,0.176,0.105,south,6.2,No
2017/07/19,21:40,0.354,0.218,0.366,0.338,0.322,0.178,0.104,south,6.4,No
2017/07/19,21:50,0.356,0.220,0.362,0.342,0.325,0.176,0.103,south,5.8,No
2017/07/19,22:00,0.357,0.218,0.367,0.340,0.324,0.177,0.104,south,6.1,No
2017/07/19,22:10,0.353,0.220,0.365,0.338,0.320,0.178,0.103,south,5.6,No
2017/07/19,22:20,0.358,0.219,0.362,0.342,0.326,0.177,0.105,south,6.3,No
2017/07/19,22:30,0.356,0.217,0.366,0.339,0.324,0.177,0.104,south,4.7,No
2017/07/19,22:40,0.353,0.219,0.364,0.340,0.321,0.178,0.103,south,5.5,No
2017/07/19,22:50,0.359,0.217,0.364,0.341,0.326,0.177,0.104,south,6.3,No
2017/07/19,23:00,0.356,0.219,0.366,0.338,0.323,0.178,0.104,south-southwest,6.6,No
2017/07/19,23:10,0.354,0.219,0.362,0.342,0.323,0.178,0.104,south-southwest,7.0,No
2017/07/19,23:20,0.358,0.218,0.364,0.341,0.327,0.177,0.104,south-southwest,6.4,No
2017/07/19,23:30,0.355,0.220,0.366,0.338,0.323,0.178,0.103,south-southwest,6.3,No
2017/07/19,23:40,0.354,0.217,0.363,0.341,0.325,0.177,0.104,south-southwest,5.7,No
2017/07/19,23:50,0.357,0.219,0.364,0.342,0.325,0.178,0.105,south,5.8,No
